Storm Lake, IA

10:51 AM CDT on August 25, 2016 (GMT -0500)
Storm Lake Municipal

Weather History for KSLB - May, 2013

Change the Weather History Date:

Saturday, May 25, 2013

  Actual Average Record
Temperature  
Mean Temperature 54 °F -  
Max Temperature 59 °F 71 °F 89 °F (2008)
Min Temperature 50 °F 51 °F 44 °F (2004)
Degree Days  
Heating Degree Days 10    
Growing Degree Days 4 (Base 50)    
Moisture  
Dew Point 52 °F    
Average Humidity 93    
Maximum Humidity 100    
Minimum Humidity 63    
Precipitation  
Precipitation 1.03 in - - ()
Sea Level Pressure  
Sea Level Pressure 30.09 in    
Wind  
Wind Speed 19 mph (SE)    
Max Wind Speed 30 mph    
Max Gust Speed 41 mph    
Visibility 7 miles    
Events Fog , Rain    
Averages and records for this station are not official NWS values.
T = Trace of Precipitation, MM = Missing Value Source: NWS Daily Summary

Daily Weather History Graph

Daily Weather History Graph

Search for Another Location

Airport or City:

Trip Planner

Search our weather history database for the weather conditions in past years. The results will help you decide how hot, cold, wet, or windy it might be!

Date:

Astronomy

May. 25, 2013 Rise Set
Actual Time 5:49 AM CDT 8:46 PM CDT
Civil Twilight 5:16 AM CDT 9:19 PM CDT
Nautical Twilight 4:34 AM CDT 10:02 PM CDT
Astronomical Twilight 3:44 AM CDT 10:52 PM CDT
Moon 9:35 PM CDT 6:18 AM CDT
Length of Visible Light 16h 03m
Length of Day
14h 56m
Full, 100% of the Moon is Illuminated
May 25
Full
May 31
Last Quarter
Jun 8
New
Jun 16
First Quarter
Jun 23
Full

Hourly Weather History & Observations

Time (CDT) Temp. Dew Point Humidity Pressure Visibility Wind Dir Wind Speed Gust Speed Precip Events Conditions
12:15 AM 59.0 °F 46.4 °F 63% 30.15 in 10.0 mi SE 20.7 mph - N/A   Mostly Cloudy
12:35 AM 59.0 °F 46.4 °F 63% 30.14 in 10.0 mi SE 19.6 mph 25.3 mph N/A   Mostly Cloudy
12:55 AM 59.0 °F 46.4 °F 63% 30.11 in 10.0 mi SE 23.0 mph - N/A   Mostly Cloudy
1:15 AM 59.0 °F 46.4 °F 63% 30.11 in 10.0 mi SE 21.9 mph - N/A   Clear
1:35 AM 59.0 °F 46.4 °F 63% 30.11 in 10.0 mi SSE 19.6 mph - N/A   Mostly Cloudy
1:55 AM 59.0 °F 46.4 °F 63% 30.11 in 10.0 mi SSE 19.6 mph 28.8 mph N/A   Overcast
2:15 AM 59.0 °F 46.4 °F 63% 30.09 in 10.0 mi SSE 19.6 mph - N/A   Overcast
2:35 AM 57.2 °F 46.4 °F 67% 30.08 in 10.0 mi SSE 20.7 mph 26.5 mph N/A   Overcast
2:55 AM 57.2 °F 46.4 °F 67% 30.09 in 10.0 mi SSE 20.7 mph - N/A   Overcast
3:15 AM 57.2 °F 46.4 °F 67% 30.09 in 10.0 mi SSE 19.6 mph - N/A   Overcast
3:35 AM 57.2 °F 48.2 °F 72% 30.09 in 9.0 mi SSE 16.1 mph 23.0 mph N/A Rain Light Rain
3:55 AM 55.4 °F 50.0 °F 82% 30.08 in 9.0 mi SSE 17.3 mph - N/A   Overcast
4:15 AM 53.6 °F 50.0 °F 88% 30.06 in 9.0 mi SE 16.1 mph - N/A   Light Drizzle
4:35 AM 53.6 °F 50.0 °F 88% 30.06 in 10.0 mi SE 15.0 mph 20.7 mph N/A   Light Drizzle
4:55 AM 51.8 °F 51.8 °F 100% 30.09 in 1.5 mi SE 10.4 mph - 0.28 in Rain Light Rain
5:15 AM 51.8 °F 51.8 °F 100% 30.08 in 2.0 mi SE 13.8 mph - N/A Rain Heavy Rain
5:35 AM 51.8 °F 51.8 °F 100% 30.07 in 5.0 mi SE 17.3 mph - N/A Rain Light Rain
5:55 AM 51.8 °F 51.8 °F 100% 30.08 in 6.0 mi SE 20.7 mph - 0.42 in Rain Light Rain
6:15 AM 51.8 °F 51.8 °F 100% 30.06 in 6.0 mi SE 24.2 mph 31.1 mph N/A Rain Light Rain
6:35 AM 51.8 °F 51.8 °F 100% 30.04 in 4.0 mi SE 26.5 mph - N/A Rain Light Rain
6:55 AM 51.8 °F 51.8 °F 100% 30.02 in 3.0 mi SSE 29.9 mph 41.4 mph 0.15 in   Mostly Cloudy
7:15 AM 51.8 °F 51.8 °F 100% 30.05 in 4.0 mi SSE 20.7 mph 33.4 mph N/A Rain Light Rain
7:35 AM 51.8 °F 51.8 °F 100% 30.03 in 6.0 mi SE 21.9 mph 29.9 mph N/A Rain Light Rain
7:55 AM 51.8 °F 51.8 °F 100% 30.04 in 8.0 mi SE 19.6 mph 28.8 mph 0.05 in Rain Light Rain
8:15 AM 51.8 °F 51.8 °F 100% 30.05 in 9.0 mi SE 23.0 mph 29.9 mph N/A   Overcast
8:35 AM 51.8 °F 51.8 °F 100% 30.09 in 10.0 mi SE 11.5 mph 24.2 mph N/A   Overcast
8:55 AM 51.8 °F 51.8 °F 100% 30.08 in 10.0 mi SSE 15.0 mph - N/A   Overcast
9:15 AM 51.8 °F 51.8 °F 100% 30.10 in 10.0 mi SE 13.8 mph - N/A   Overcast
9:35 AM 51.8 °F 51.8 °F 100% 30.11 in 10.0 mi SE 12.7 mph - N/A   Overcast
9:55 AM 51.8 °F 51.8 °F 100% 30.14 in 10.0 mi SE 16.1 mph - N/A   Overcast
10:15 AM 51.8 °F 51.8 °F 100% 30.14 in 10.0 mi SSE 13.8 mph 23.0 mph N/A   Overcast
10:35 AM 51.8 °F 51.8 °F 100% 30.14 in 10.0 mi SE 17.3 mph 24.2 mph N/A   Overcast
10:55 AM 51.8 °F 51.8 °F 100% 30.11 in 10.0 mi SE 18.4 mph 25.3 mph N/A   Overcast
11:15 AM 53.6 °F 51.8 °F 94% 30.10 in 10.0 mi SE 17.3 mph 24.2 mph N/A   Overcast
11:35 AM 53.6 °F 53.6 °F 100% 30.11 in 10.0 mi SE 13.8 mph 23.0 mph N/A   Overcast
11:55 AM 53.6 °F 53.6 °F 100% 30.11 in 10.0 mi SE 16.1 mph 21.9 mph N/A   Overcast
12:15 PM 55.4 °F 53.6 °F 94% 30.11 in 10.0 mi SE 17.3 mph - N/A   Overcast
12:35 PM 55.4 °F 53.6 °F 94% 30.11 in 10.0 mi SE 18.4 mph - N/A   Overcast
12:55 PM 57.2 °F 57.2 °F 100% 30.11 in 10.0 mi SE 16.1 mph 21.9 mph N/A   Overcast
1:15 PM 59.0 °F 57.2 °F 94% 30.09 in 10.0 mi SE 18.4 mph - N/A   Overcast
1:35 PM 59.0 °F 57.2 °F 94% 30.08 in 10.0 mi SE 18.4 mph - N/A   Overcast
1:55 PM 59.0 °F 57.2 °F 94% 30.09 in 10.0 mi SE 18.4 mph - N/A   Overcast
2:15 PM 59.0 °F 57.2 °F 94% 30.10 in 10.0 mi SE 16.1 mph - N/A   Overcast
2:35 PM 59.0 °F 57.2 °F 94% 30.10 in 9.0 mi SE 18.4 mph - N/A   Overcast
2:55 PM 59.0 °F 57.2 °F 94% 30.09 in 9.0 mi SE 15.0 mph - N/A   Overcast
3:15 PM 59.0 °F 57.2 °F 94% 30.09 in 10.0 mi ESE 17.3 mph - N/A   Overcast
3:35 PM 57.2 °F 57.2 °F 100% 30.09 in 10.0 mi SE 15.0 mph - N/A   Overcast
3:55 PM 57.2 °F 57.2 °F 100% 30.09 in 9.0 mi SE 16.1 mph - N/A   Overcast
4:15 PM 57.2 °F 57.2 °F 100% 30.09 in 9.0 mi ESE 16.1 mph 21.9 mph N/A   Overcast
4:35 PM 59.0 °F 57.2 °F 94% 30.09 in - ESE 17.3 mph - N/A   Overcast
4:55 PM 59.0 °F 57.2 °F 94% 30.08 in 9.0 mi ESE 17.3 mph - N/A   Mostly Cloudy
5:15 PM 57.2 °F 57.2 °F 100% 30.08 in 8.0 mi ESE 17.3 mph - N/A   Mostly Cloudy
5:35 PM 57.2 °F 55.4 °F 94% 30.09 in 7.0 mi ESE 18.4 mph 25.3 mph N/A   Overcast
5:55 PM 57.2 °F 55.4 °F 94% 30.08 in 6.0 mi ESE 18.4 mph - N/A   Overcast
6:15 PM 55.4 °F 55.4 °F 100% 30.08 in 5.0 mi ESE 21.9 mph - N/A   Overcast
6:35 PM - - N/A% - - North - - N/A   Unknown
6:55 PM 55.4 °F 55.4 °F 100% 30.07 in 1.8 mi ESE 18.4 mph 26.5 mph N/A   Mist
7:15 PM 53.6 °F 53.6 °F 100% 30.07 in 0.5 mi ESE 24.2 mph 29.9 mph N/A   Overcast
7:35 PM 53.6 °F 53.6 °F 100% 30.08 in 0.2 mi ESE 20.7 mph - N/A Fog Fog
7:55 PM 53.6 °F 53.6 °F 100% 30.08 in 0.2 mi ESE 19.6 mph 28.8 mph N/A   Light Drizzle
8:15 PM 53.6 °F 53.6 °F 100% 30.08 in 0.2 mi ESE 20.7 mph 28.8 mph N/A   Light Drizzle
8:35 PM 51.8 °F 51.8 °F 100% 30.07 in 0.2 mi ESE 23.0 mph 28.8 mph N/A Fog Fog
8:55 PM 51.8 °F 51.8 °F 100% 30.07 in 0.2 mi ESE 26.5 mph - N/A Fog Fog
9:15 PM 51.8 °F 51.8 °F 100% 30.08 in 0.8 mi ESE 21.9 mph 29.9 mph N/A   Overcast
9:35 PM 51.8 °F 51.8 °F 100% 30.08 in 0.5 mi ESE 25.3 mph - N/A Fog Fog
9:55 PM 51.8 °F 51.8 °F 100% 30.10 in 0.2 mi ESE 18.4 mph 31.1 mph N/A Fog Fog
10:15 PM 51.8 °F 51.8 °F 100% 30.12 in 0.5 mi ESE 23.0 mph 31.1 mph N/A Fog Fog
10:35 PM 50.0 °F 50.0 °F 100% 30.11 in - ESE 20.7 mph 31.1 mph N/A   Light Drizzle
10:55 PM 50.0 °F 50.0 °F 100% 30.11 in 0.2 mi ESE 21.9 mph 28.8 mph N/A Fog Fog
11:15 PM 50.0 °F 50.0 °F 100% 30.08 in 0.5 mi ESE 24.2 mph 33.4 mph N/A Rain Light Rain
11:35 PM 50.0 °F 50.0 °F 100% 30.08 in 0.5 mi ESE 20.7 mph 31.1 mph N/A Fog Fog
11:55 PM 50.0 °F 50.0 °F 100% 30.07 in 0.5 mi SE 28.8 mph 34.5 mph 0.13 in Fog Fog